Weather in Grimsi

Iceland     66°32′48″N   18°00′39″W
temp.,
°C
wind,
m/s
gust,
m/s
humid.,
%
clouds,
%
prec.,
mm/h
press.,
hPa
HPBL,
m
9 december, thu
thu900:000ese8859100 0.0 995298
03:00+1ese8960100 0.0 993401
06:00+1ese7893100 0.1 989467
09:00+1ese91285100 0.0 987405
12:00+2ese111683100 0.0 986686
15:00+3ese131588100 0.0 985619
18:00+3e101389100 0.0 985725
21:00+3e81091100 0.0 986678
10 december, fri
fri1000:00+3ene898892 0.3 987647
03:00+3ne788085 0.3 989593
06:00+3n5685100 0.4 990427
09:00+2w888976 0.1 991525
12:00+2wsw9118367 0.1 993706
15:00+2sw667915 0.0 995586
18:00+2e34795 0.0 996389
21:00+1ese811785 0.0 996399
11 december, sat
sat1100:00+1ese101284100 0.0 994422
03:00+1ese111685100 0.0 992456
06:00+2ese121585100 0.0 989496
09:00+4e151990100 0.0 986639
12:00+3e161994100 0.3 982638
15:00+4ese141993100 0.4 978745
18:00+4ese11148614 1.1 975301
21:00+4se14197525 0.0 976455
12 december, sun
sun1200:00+4ese13177799 0.0 975497
03:00+4se101483100 0.0 976252
06:00+4se111682100 0.0 977226
09:00+5sse1117747 0.0 979332
12:00+4sse10167588 0.0 981286
15:00+5ssw6881100 0.0 984110
18:00+5s9136768 0.0 986321
21:00+4s81276100 0.0 988176
13 december, mon
mon1300:00+4s71273100 0.0 989232
03:00+4ssw81272100 0.0 990174
06:00+4ssw7975100 0.0 991155
09:00+4sw4577100 0.0 99193
12:00+3nw227624 0.0 99168
15:00+3wsw478085 0.0 990284
18:00+3w9109475 0.0 990454
21:00+3w568699 0.0 990544